Time,TemperatureF,DewpointF,PressureIn,WindDirection,WindDirectionDegrees,WindSpeedMPH,WindSpeedGustMPH,Humidity,HourlyPrecipIn,Conditions,Clouds,dailyrainin,SoftwareType,DateUTC
2013-11-05 00:12:00,45.5,39.7,30.13,NNW,337,3.2,-999.0,80,-99.99,,,0.00,Acu-Link.com,2013-11-05 06:12:00,
2013-11-05 00:27:00,45.5,39.7,30.13,NNW,337,2.7,-999.0,80,-99.99,,,0.00,Acu-Link.com,2013-11-05 06:27:00,
2013-11-05 00:42:00,45.7,39.9,30.12,NNE,22,3.2,-999.0,80,-99.99,,,0.00,Acu-Link.com,2013-11-05 06:42:00,
2013-11-05 00:58:00,45.9,40.4,30.12,NNE,22,3.2,-999.0,81,-99.99,,,0.00,Acu-Link.com,2013-11-05 06:58:00,
2013-11-05 01:13:00,46.2,40.4,30.12,North,0,4.7,-999.0,80,-99.99,,,0.00,Acu-Link.com,2013-11-05 07:13:00,
2013-11-05 01:28:00,46.4,40.6,30.12,NNE,22,2.7,-999.0,80,-99.99,,,0.00,Acu-Link.com,2013-11-05 07:28:00,
2013-11-05 01:43:00,46.4,40.6,30.12,NE,45,3.7,-999.0,80,-99.99,,,0.00,Acu-Link.com,2013-11-05 07:43:00,
2013-11-05 01:58:00,46.4,40.6,30.13,NNW,337,3.7,-999.0,80,-99.99,,,0.00,Acu-Link.com,2013-11-05 07:58:00,
2013-11-05 02:13:00,46.4,40.6,30.13,NE,45,2.7,-999.0,80,-99.99,,,0.00,Acu-Link.com,2013-11-05 08:13:00,
2013-11-05 02:28:00,46.4,40.6,30.13,ESE,112,2.7,-999.0,80,-99.99,,,0.00,Acu-Link.com,2013-11-05 08:28:00,
2013-11-05 02:44:00,46.4,40.9,30.13,NW,315,4.7,-999.0,81,-99.99,,,0.00,Acu-Link.com,2013-11-05 08:44:00,
2013-11-05 02:59:00,46.4,40.9,30.12,North,0,3.7,-999.0,81,-99.99,,,0.00,Acu-Link.com,2013-11-05 08:59:00,
2013-11-05 03:14:00,46.4,40.9,30.11,NNW,337,5.3,-999.0,81,-99.99,,,0.00,Acu-Link.com,2013-11-05 09:14:00,
2013-11-05 03:30:00,46.4,40.9,30.11,NNE,22,4.2,-999.0,81,-99.99,,,0.00,Acu-Link.com,2013-11-05 09:30:00,
2013-11-05 03:45:00,46.4,40.9,30.11,NNW,337,4.7,-999.0,81,-99.99,,,0.00,Acu-Link.com,2013-11-05 09:45:00,
2013-11-05 04:00:00,46.4,40.9,30.11,WNW,292,3.2,-999.0,81,-99.99,,,0.00,Acu-Link.com,2013-11-05 10:00:00,
2013-11-05 04:15:00,46.6,41.1,30.11,NE,45,3.2,-999.0,81,-99.99,,,0.00,Acu-Link.com,2013-11-05 10:15:00,
2013-11-05 04:30:00,46.6,41.1,30.11,NNE,22,3.7,-999.0,81,-99.99,,,0.00,Acu-Link.com,2013-11-05 10:30:00,
2013-11-05 04:45:00,46.8,41.3,30.10,North,0,4.2,-999.0,81,-99.99,,,0.00,Acu-Link.com,2013-11-05 10:45:00,
2013-11-05 05:01:00,46.8,41.6,30.09,ESE,112,3.2,-999.0,82,-99.99,,,0.00,Acu-Link.com,2013-11-05 11:01:00,
2013-11-05 05:16:00,47.3,41.8,30.08,ENE,67,4.2,-999.0,81,-99.99,,,0.00,Acu-Link.com,2013-11-05 11:16:00,
2013-11-05 05:31:00,47.7,41.8,30.08,ESE,112,7.8,-999.0,80,-99.99,,,0.00,Acu-Link.com,2013-11-05 11:31:00,
2013-11-05 05:46:00,47.8,42.6,30.08,ESE,112,4.2,-999.0,82,-99.99,,,0.00,Acu-Link.com,2013-11-05 11:46:00,
2013-11-05 06:02:00,47.7,43.4,30.07,East,90,6.3,-999.0,85,-99.99,,,0.00,Acu-Link.com,2013-11-05 12:02:00,
2013-11-05 06:17:00,47.7,44.0,30.07,East,90,6.3,-999.0,87,-99.99,,,0.00,Acu-Link.com,2013-11-05 12:17:00,
2013-11-05 06:32:00,47.7,44.6,30.07,ENE,67,6.8,-999.0,89,-99.99,,,0.00,Acu-Link.com,2013-11-05 12:32:00,
2013-11-05 06:47:00,47.3,45.1,30.06,ENE,67,5.8,-999.0,92,-99.99,,,0.00,Acu-Link.com,2013-11-05 12:47:00,
2013-11-05 07:03:00,46.8,45.4,30.05,East,90,4.7,-999.0,95,-99.99,,,0.00,Acu-Link.com,2013-11-05 13:03:00,
2013-11-05 07:18:00,46.6,46.1,30.05,East,90,4.2,-999.0,98,-99.99,,,0.00,Acu-Link.com,2013-11-05 13:18:00,
2013-11-05 07:33:00,46.6,46.3,30.05,ESE,112,5.3,-999.0,99,-99.99,,,0.00,Acu-Link.com,2013-11-05 13:33:00,
2013-11-05 07:48:00,46.8,46.5,30.05,NNE,22,4.7,-999.0,99,-99.99,,,0.00,Acu-Link.com,2013-11-05 13:48:00,
2013-11-05 08:03:00,46.8,46.5,30.05,ESE,112,3.7,-999.0,99,-99.99,,,0.00,Acu-Link.com,2013-11-05 14:03:00,
2013-11-05 08:18:00,46.8,46.5,30.05,NNW,337,3.2,-999.0,99,-99.99,,,0.00,Acu-Link.com,2013-11-05 14:18:00,
2013-11-05 08:34:00,46.9,46.6,30.05,ENE,67,2.7,-999.0,99,-99.99,,,0.00,Acu-Link.com,2013-11-05 14:34:00,
2013-11-05 08:49:00,47.5,47.2,30.04,ESE,112,5.8,-999.0,99,-99.99,,,0.00,Acu-Link.com,2013-11-05 14:49:00,
2013-11-05 09:04:00,48.0,47.7,30.02,ESE,112,4.2,-999.0,99,-99.99,,,0.00,Acu-Link.com,2013-11-05 15:04:00,
2013-11-05 09:19:00,48.4,48.1,30.02,ESE,112,4.2,-999.0,99,-99.99,,,0.00,Acu-Link.com,2013-11-05 15:19:00,
2013-11-05 09:35:00,48.7,48.4,30.01,ESE,112,3.2,-999.0,99,-99.99,,,0.00,Acu-Link.com,2013-11-05 15:35:00,
2013-11-05 09:50:00,49.1,48.8,30.00,ESE,112,7.8,-999.0,99,-99.99,,,0.00,Acu-Link.com,2013-11-05 15:50:00,
2013-11-05 10:05:00,49.8,49.5,29.99,SE,135,2.7,-999.0,99,-99.99,,,0.00,Acu-Link.com,2013-11-05 16:05:00,
2013-11-05 10:20:00,50.4,50.1,29.98,SE,135,6.8,-999.0,99,-99.99,,,0.01,Acu-Link.com,2013-11-05 16:20:00,
2013-11-05 10:36:00,50.7,50.4,29.97,ESE,112,4.7,-999.0,99,-99.99,,,0.01,Acu-Link.com,2013-11-05 16:36:00,
2013-11-05 10:51:00,51.3,51.0,29.96,SSE,157,4.2,-999.0,99,-99.99,,,0.01,Acu-Link.com,2013-11-05 16:51:00,
2013-11-05 11:06:00,51.6,51.3,29.95,South,180,5.8,-999.0,99,-99.99,,,0.01,Acu-Link.com,2013-11-05 17:06:00,
2013-11-05 11:21:00,52.2,51.9,29.93,ESE,112,5.8,-999.0,99,-99.99,,,0.03,Acu-Link.com,2013-11-05 17:21:00,
2013-11-05 11:37:00,53.1,52.8,29.93,ESE,112,8.9,-999.0,99,-99.99,,,0.04,Acu-Link.com,2013-11-05 17:37:00,
2013-11-05 11:52:00,53.4,53.1,29.91,SE,135,3.7,-999.0,99,-99.99,,,0.05,Acu-Link.com,2013-11-05 17:52:00,
2013-11-05 12:07:00,53.6,53.3,29.90,SSE,157,6.8,-999.0,99,-99.99,,,0.05,Acu-Link.com,2013-11-05 18:07:00,
2013-11-05 12:22:00,54.1,53.8,29.89,SW,225,8.9,-999.0,99,-99.99,,,0.07,Acu-Link.com,2013-11-05 18:22:00,
2013-11-05 12:38:00,54.3,54.0,29.88,SSW,202,7.3,-999.0,99,-99.99,,,0.10,Acu-Link.com,2013-11-05 18:38:00,
2013-11-05 12:53:00,54.3,54.0,29.87,SSW,202,6.8,-999.0,99,-99.99,,,0.10,Acu-Link.com,2013-11-05 18:53:00,
2013-11-05 13:08:00,54.5,54.2,29.86,SSW,202,6.3,-999.0,99,-99.99,,,0.12,Acu-Link.com,2013-11-05 19:08:00,
2013-11-05 13:23:00,54.9,54.6,29.85,SSE,157,4.2,-999.0,99,-99.99,,,0.14,Acu-Link.com,2013-11-05 19:23:00,
2013-11-05 13:39:00,55.0,54.7,29.84,SSW,202,9.4,-999.0,99,-99.99,,,0.22,Acu-Link.com,2013-11-05 19:39:00,
2013-11-05 13:54:00,55.6,55.3,29.83,SSW,202,5.8,-999.0,99,-99.99,,,0.24,Acu-Link.com,2013-11-05 19:54:00,
2013-11-05 14:09:00,55.6,55.3,29.82,WSW,247,3.7,-999.0,99,-99.99,,,0.25,Acu-Link.com,2013-11-05 20:09:00,
2013-11-05 14:24:00,55.8,55.5,29.81,SSE,157,8.9,-999.0,99,-99.99,,,0.25,Acu-Link.com,2013-11-05 20:24:00,
2013-11-05 14:39:00,55.9,55.6,29.81,SE,135,4.7,-999.0,99,-99.99,,,0.25,Acu-Link.com,2013-11-05 20:39:00,
2013-11-05 14:55:00,56.1,55.8,29.80,SW,225,3.7,-999.0,99,-99.99,,,0.26,Acu-Link.com,2013-11-05 20:55:00,
2013-11-05 15:10:00,56.1,55.8,29.80,SSW,202,7.8,-999.0,99,-99.99,,,0.26,Acu-Link.com,2013-11-05 21:10:00,
2013-11-05 15:25:00,56.3,56.0,29.80,SSE,157,10.4,-999.0,99,-99.99,,,0.26,Acu-Link.com,2013-11-05 21:25:00,
2013-11-05 15:40:00,56.5,56.2,29.80,South,180,5.8,-999.0,99,-99.99,,,0.27,Acu-Link.com,2013-11-05 21:40:00,
2013-11-05 15:56:00,56.5,56.2,29.80,SW,225,7.3,-999.0,99,-99.99,,,0.27,Acu-Link.com,2013-11-05 21:56:00,
2013-11-05 16:11:00,56.7,56.4,29.79,SSW,202,6.8,-999.0,99,-99.99,,,0.27,Acu-Link.com,2013-11-05 22:11:00,
2013-11-05 16:26:00,56.7,56.4,29.79,SSE,157,6.8,-999.0,99,-99.99,,,0.27,Acu-Link.com,2013-11-05 22:26:00,
2013-11-05 16:41:00,56.7,56.4,29.79,WSW,247,6.8,-999.0,99,-99.99,,,0.28,Acu-Link.com,2013-11-05 22:41:00,
2013-11-05 16:57:00,56.8,56.5,29.79,South,180,7.3,-999.0,99,-99.99,,,0.28,Acu-Link.com,2013-11-05 22:57:00,
2013-11-05 17:12:00,56.8,56.5,29.78,East,90,8.9,-999.0,99,-99.99,,,0.28,Acu-Link.com,2013-11-05 23:12:00,
2013-11-05 17:27:00,56.8,56.5,29.78,SSE,157,6.3,-999.0,99,-99.99,,,0.28,Acu-Link.com,2013-11-05 23:27:00,
2013-11-05 17:42:00,56.8,56.5,29.79,ESE,112,4.7,-999.0,99,-99.99,,,0.28,Acu-Link.com,2013-11-05 23:42:00,
2013-11-05 17:58:00,56.8,56.5,29.78,SSE,157,7.8,-999.0,99,-99.99,,,0.31,Acu-Link.com,2013-11-05 23:58:00,
2013-11-05 18:13:00,56.8,56.5,29.80,North,0,1.7,-999.0,99,-99.99,,,0.33,Acu-Link.com,2013-11-06 00:13:00,
2013-11-05 18:28:00,52.7,51.6,29.81,South,180,2.7,-999.0,96,-99.99,,,0.33,Acu-Link.com,2013-11-06 00:28:00,
2013-11-05 18:43:00,48.7,47.3,29.83,WNW,292,6.3,-999.0,95,-99.99,,,0.34,Acu-Link.com,2013-11-06 00:43:00,
2013-11-05 18:59:00,45.7,44.9,29.84,North,0,4.2,-999.0,97,-99.99,,,0.35,Acu-Link.com,2013-11-06 00:59:00,
2013-11-05 19:14:00,44.2,43.9,29.85,NNW,337,5.8,-999.0,99,-99.99,,,0.37,Acu-Link.com,2013-11-06 01:14:00,
2013-11-05 19:29:00,43.2,42.9,29.86,West,270,4.7,-999.0,99,-99.99,,,0.37,Acu-Link.com,2013-11-06 01:29:00,
2013-11-05 19:44:00,42.3,42.0,29.87,WNW,292,7.3,-999.0,99,-99.99,,,0.38,Acu-Link.com,2013-11-06 01:44:00,
2013-11-05 19:59:00,41.4,41.1,29.87,NNW,337,8.9,-999.0,99,-99.99,,,0.40,Acu-Link.com,2013-11-06 01:59:00,
2013-11-05 20:15:00,40.6,40.3,29.87,NW,315,8.3,-999.0,99,-99.99,,,0.45,Acu-Link.com,2013-11-06 02:15:00,
2013-11-05 20:30:00,39.9,39.6,29.88,NW,315,5.8,-999.0,99,-99.99,,,0.46,Acu-Link.com,2013-11-06 02:30:00,
2013-11-05 20:45:00,39.4,39.1,29.89,NNW,337,7.3,-999.0,99,-99.99,,,0.46,Acu-Link.com,2013-11-06 02:45:00,
2013-11-05 21:00:00,38.8,38.5,29.90,NNW,337,8.3,-999.0,99,-99.99,,,0.48,Acu-Link.com,2013-11-06 03:00:00,
2013-11-05 21:16:00,38.7,38.4,29.91,West,270,6.3,-999.0,99,-99.99,,,0.48,Acu-Link.com,2013-11-06 03:16:00,
2013-11-05 21:31:00,38.5,38.2,29.93,WNW,292,10.4,-999.0,99,-99.99,,,0.48,Acu-Link.com,2013-11-06 03:31:00,
2013-11-05 21:46:00,37.9,37.6,29.94,NNW,337,12.5,-999.0,99,-99.99,,,0.48,Acu-Link.com,2013-11-06 03:46:00,
2013-11-05 22:01:00,37.8,37.5,29.95,WNW,292,10.4,-999.0,99,-99.99,,,0.48,Acu-Link.com,2013-11-06 04:01:00,
2013-11-05 22:17:00,37.4,37.1,29.95,NW,315,6.8,-999.0,99,-99.99,,,0.48,Acu-Link.com,2013-11-06 04:17:00,
2013-11-05 22:32:00,37.0,36.7,29.96,NNW,337,5.8,-999.0,99,-99.99,,,0.48,Acu-Link.com,2013-11-06 04:32:00,
2013-11-05 22:47:00,36.5,36.2,29.97,NNW,337,10.4,-999.0,99,-99.99,,,0.48,Acu-Link.com,2013-11-06 04:47:00,
2013-11-05 23:17:00,36.0,35.7,29.97,NW,315,5.3,-999.0,99,-99.99,,,0.48,Acu-Link.com,2013-11-06 05:17:00,
2013-11-05 23:32:00,35.8,35.5,29.99,WNW,292,9.4,-999.0,99,-99.99,,,0.48,Acu-Link.com,2013-11-06 05:32:00,
2013-11-05 23:48:00,35.6,35.3,30.02,NW,315,7.3,-999.0,99,-99.99,,,0.48,Acu-Link.com,2013-11-06 05:48:00,